Location: Tamazert
(32.6352°N, 5.2072°W)
Time: 17:15:25
(UTC+00:00)

Transit 2A Rocket - Pass Details

Date: 09 October 2022
Orbit: 589 x 912 km, 66.7° (Epoch: 07 December)

Event Time Altitude Azimuth Distance (km) Brightness Sun altitude
Rises 04:28:15 0° 219° (SW) 2,853 - -24.3°
Reaches altitude 10° 04:30:36 10° 226° (SW) 1,930 - -23.9°
Maximum altitude 04:34:42 43° 299° (WNW) 828 - -23.0°
Exits shadow 04:36:02 33° 344° (NNW) 1,004 5.5 -22.7°
Drops below altitude 10° 04:38:47 10° 12° (NNE) 1,922 7.3 -22.2°
Sets 04:41:08 0° 19° (NNE) 2,841 8.3 -21.7°
